Weather in Sosnovka

Russia / Penza Oblast     53°24′36″N   42°54′17″E
temp.,
°C
wind,
m/s
gust,
m/s
humid.,
%
clouds,
%
prec.,
mm/h
press.,
hPa
HPBL,
m
21 january, fri
fri2100:00−14s61594100 0.0 1016296
03:00−14s61693100 0.0 1015313
06:00−13s71692100 0.0 1013324
09:00−12sse81891100 0.0 1013446
12:00−9sse92089100 0.0 1010575
15:00−8sse102093100 0.7 1008775
18:00−7sse91792100 0.7 1007666
21:00−6sse81794100 1.6 1005626
22 january, sat
sat2200:00−4ssw6129390 0.9 1007564
03:00−9s5119775 0.9 1009200
06:00−10sse5129684 0.0 1011214
09:00−11sse5129577 0.0 1012217
12:00−9s5129578 0.0 1014318
15:00−8sse5119474 0.0 1015294
18:00−11sse379683 0.0 1017108
21:00−11sse3898100 0.0 1018132
23 january, sun
sun2300:00−14sse2310098 0.0 102047
03:00−11sse36100100 0.1 1021150
06:00−8sse3595100 0.1 1022295
09:00−7se2493100 0.1 1025275
12:00−7e2494100 0.0 1026153
15:00−6ne3694100 0.0 1027176
18:00−5ene51094100 0.0 1029272
21:00−4ene51195100 0.2 1029429
24 january, mon
mon2400:00−4e51195100 0.6 1030441
03:00−6e51088100 0.6 1031330
06:00−9e51188100 0.0 1032217
09:00−9e51286100 0.0 1032245
12:00−7e41087100 0.0 1033334
15:00−7ese51087100 0.0 1032274
18:00−10e4119179 0.0 1032176
21:00−10ese5118792 0.0 1032203
25 january, tue
tue2500:00−11se51287100 0.0 1032215
03:00−11se51285100 0.0 1031195
06:00−11se51283100 0.0 1030200
09:00−12se51283100 0.0 1030224
12:00−10sse51283100 0.0 1029283
15:00−9se51286100 0.0 1028265
18:00−11se5128838 0.0 1028206
21:00−12se412916 0.0 1029201